Alexandria, LA

8:26 PM CDT on July 24, 2017 (GMT -0500)
Alexandria International

Weather History for KAEX - October, 2013

Change the Weather History Date:

Thursday, October 24, 2013

  Actual Average Record
Temperature  
Mean Temperature 66 °F 65 °F  
Max Temperature 83 °F 77 °F 91 °F (1953)
Min Temperature 48 °F 52 °F 32 °F (1917)
Degree Days  
Heating Degree Days 0 3  
Month to date heating degree days 31 42  
Since 1 July heating degree days 31 45  
Cooling Degree Days 1 3  
Month to date cooling degree days 142 118  
Year to date cooling degree days 2568 2468  
Growing Degree Days 15 (Base 50)    
Moisture  
Dew Point 53 °F    
Average Humidity 67    
Maximum Humidity 100    
Minimum Humidity 33    
Precipitation  
Precipitation 0.00 in 0.13 in 2.75 in (1997)
Month to date precipitation 2.57 4.61  
Year to date precipitation 45.55 43.74  
Snow  
Snow 0.00 in - 0.00 in ()
Month to date snowfall 0.0  
Since 1 July snowfall 0.0  
Since 1 September snowfall 0.0  
Snow Depth 0.00 in    
Sea Level Pressure  
Sea Level Pressure 30.17 in    
Wind  
Wind Speed 5 mph (WSW)    
Max Wind Speed 13 mph    
Max Gust Speed 18 mph    
Visibility 10 miles    
Events      
T = Trace of Precipitation, MM = Missing Value Source: NWS Daily Summary

Daily Weather History Graph

Daily Weather History Graph

Search for Another Location

Airport or City:

Trip Planner

Search our weather history database for the weather conditions in past years. The results will help you decide how hot, cold, wet, or windy it might be!

Date:

Astronomy

Oct. 24, 2013 Rise Set
Actual Time 7:19 AM CDT 6:28 PM CDT
Civil Twilight 6:55 AM CDT 6:53 PM CDT
Nautical Twilight 6:26 AM CDT 7:21 PM CDT
Astronomical Twilight 5:58 AM CDT 7:49 PM CDT
Moon 11:00 PM CDT (10/24) 12:12 PM CDT (10/24)
Length of Visible Light 11h 58m
Length of Day
11h 08m
Waning Gibbous, 71% of the Moon is Illuminated
Oct 24
Waning Gibbous
Oct 26
Last Quarter
Nov 3
New
Nov 9
First Quarter
Nov 17
Full

Hourly Weather History & Observations

Time (CDT) Temp. Heat Index Dew Point Humidity Pressure Visibility Wind Dir Wind Speed Gust Speed Precip Events Conditions
12:53 AM 52.0 °F - 51.1 °F 97% 30.12 in 10.0 mi Calm Calm - N/A   Clear
1:53 AM 52.0 °F - 51.1 °F 97% 30.12 in 10.0 mi Calm Calm - N/A   Clear
2:53 AM 52.0 °F - 51.1 °F 97% 30.12 in 10.0 mi Calm Calm - N/A   Clear
3:53 AM 51.1 °F - 50.0 °F 96% 30.12 in 8.0 mi Calm Calm - N/A   Clear
4:53 AM 48.9 °F - 48.0 °F 97% 30.13 in 10.0 mi Calm Calm - N/A   Clear
5:53 AM 50.0 °F - 48.0 °F 93% 30.14 in 10.0 mi SE 3.5 mph - N/A   Clear
6:53 AM 48.9 °F - 48.0 °F 97% 30.16 in 10.0 mi Calm Calm - 0.01 in   Clear
7:53 AM 48.9 °F - 48.9 °F 100% 30.17 in 9.0 mi Calm Calm - N/A   Clear
8:53 AM 57.0 °F - 53.1 °F 87% 30.20 in 10.0 mi SE 3.5 mph - N/A   Clear
9:53 AM 64.0 °F - 54.0 °F 70% 30.22 in 10.0 mi SW 5.8 mph - N/A   Clear
10:53 AM 71.1 °F - 54.0 °F 55% 30.22 in 10.0 mi SW 9.2 mph - N/A   Clear
11:53 AM 75.9 °F - 55.0 °F 48% 30.20 in 10.0 mi SW 8.1 mph - N/A   Clear
12:53 PM 80.1 °F 80.0 °F 54.0 °F 40% 30.18 in 10.0 mi WSW 10.4 mph 16.1 mph N/A   Clear
1:53 PM 82.0 °F 81.3 °F 54.0 °F 38% 30.16 in 10.0 mi SW 10.4 mph - N/A   Clear
2:53 PM 82.0 °F - 51.1 °F 34% 30.14 in 10.0 mi WSW 10.4 mph - N/A   Clear
3:53 PM 82.9 °F - 50.0 °F 32% 30.14 in 10.0 mi West 8.1 mph - N/A   Clear
4:53 PM 82.9 °F 81.8 °F 53.1 °F 36% 30.14 in 10.0 mi Variable 3.5 mph - N/A   Clear
5:53 PM 78.1 °F - 54.0 °F 43% 30.14 in 10.0 mi WNW 3.5 mph - N/A   Clear
6:53 PM 66.9 °F - 59.0 °F 76% 30.16 in 10.0 mi Calm Calm - N/A   Clear
7:53 PM 70.0 °F - 57.0 °F 63% 30.18 in 10.0 mi NNE 8.1 mph - N/A   Clear
8:53 PM 68.0 °F - 57.0 °F 68% 30.21 in 10.0 mi NNE 6.9 mph - N/A   Clear
9:53 PM 66.9 °F - 55.0 °F 66% 30.23 in 10.0 mi ENE 5.8 mph - N/A   Clear
10:53 PM 64.0 °F - 55.0 °F 73% 30.25 in 10.0 mi NE 6.9 mph - N/A   Clear
11:53 PM 62.1 °F - 53.1 °F 72% 30.26 in 10.0 mi NE 5.8 mph - N/A   Clear